Location: Tauranga
(37.6860°S, 176.1670°E)
Time: 15:31:52
(UTC+13:00)

USA 238 - Pass Details

Date: 24 January 2019
Orbit: 1048 x 1165 km, 63.4° (Epoch: 23 January)

Event Time Altitude Azimuth Distance (km) Brightness Sun altitude
Rises 22:12:58 0° 350° (N) 4,023 6.4 -17.0°
Reaches altitude 10° 22:15:48 10° 356° (N) 3,067 5.7 -17.4°
Maximum altitude 22:22:43 46° 66° (ENE) 1,528 4.1 -18.4°
Drops below altitude 10° 22:29:35 10° 135° (SE) 3,050 6.1 -19.4°
Sets 22:32:23 0° 141° (SE) 4,000 6.8 -19.8°
